| time (UTC) | temp C | wind direction | speed KPH | gust KPH | rain 1hr cm | rain 24hr cm | rain mn cm | humidity % | barometer mb |
| 20260504081541 | 11 | 252 | 11.3 | 19.3 | 0.00 | 0.00 | 0.00 | 45 | 996.7 |
| 20260504081026 | 11 | 257 | 11.3 | 19.3 | 0.00 | 0.00 | 0.00 | 45 | 996.6 |
| 20260504080526 | 11 | 242 | 9.7 | 17.7 | 0.00 | 0.00 | 0.00 | 46 | 996.7 |
| 20260504050553 | 11 | 259 | 9.7 | 16.1 | 0.00 | 0.00 | 0.00 | 49 | 1000.4 |
| 20260504045550 | 11 | 233 | 9.7 | 14.5 | 0.00 | 0.00 | 0.00 | 49 | 1000.7 |
| 20260504045051 | 11 | 246 | 9.7 | 14.5 | 0.00 | 0.00 | 0.00 | 49 | 1000.8 |
| 20260504044549 | 11 | 245 | 8.0 | 12.9 | 0.00 | 0.00 | 0.00 | 49 | 1000.9 |
| 20260504044048 | 11 | 240 | 8.0 | 11.3 | 0.00 | 0.00 | 0.00 | 48 | 1000.9 |
| 20260504043548 | 11 | 240 | 8.0 | 11.3 | 0.00 | 0.00 | 0.00 | 48 | 1001.1 |
| 20260504043054 | 11 | 246 | 6.4 | 9.7 | 0.00 | 0.00 | 0.00 | 48 | 1001.3 |
| 20260504042548 | 12 | 238 | 6.4 | 9.7 | 0.00 | 0.00 | 0.00 | 48 | 1001.5 |
| 20260504042044 | 12 | 248 | 4.8 | 9.7 | 0.00 | 0.00 | 0.00 | 47 | 1001.5 |
| 20260504041544 | 12 | 243 | 4.8 | 6.4 | 0.00 | 0.00 | 0.00 | 47 | 1001.7 |
| 20260504041043 | 12 | 245 | 4.8 | 8.0 | 0.00 | 0.00 | 0.00 | 47 | 1001.7 |
| 20260504040542 | 12 | 256 | 4.8 | 8.0 | 0.00 | 0.00 | 0.00 | 47 | 1001.8 |
| 20260504040041 | 12 | 238 | 4.8 | 8.0 | 0.00 | 0.00 | 0.00 | 47 | 1002.0 |
| 20260504035540 | 12 | 243 | 3.2 | 8.0 | 0.00 | 0.00 | 0.00 | 47 | 1002.1 |
| 20260504035040 | 12 | 252 | 3.2 | 6.4 | 0.00 | 0.00 | 0.00 | 46 | 1002.2 |
| 20260504034539 | 12 | 246 | 3.2 | 6.4 | 0.00 | 0.00 | 0.00 | 45 | 1002.2 |
| 20260504034038 | 13 | 239 | 3.2 | 8.0 | 0.00 | 0.00 | 0.00 | 44 | 1002.4 |
| 20260504033537 | 13 | 267 | 3.2 | 8.0 | 0.00 | 0.00 | 0.00 | 43 | 1002.4 |
| 20260504033036 | 13 | 240 | 3.2 | 6.4 | 0.00 | 0.00 | 0.00 | 43 | 1002.5 |
| 20260504032536 | 13 | 233 | 3.2 | 6.4 | 0.00 | 0.00 | 0.00 | 42 | 1002.7 |
| 20260504032036 | 13 | 246 | 1.6 | 4.8 | 0.00 | 0.00 | 0.00 | 42 | 1002.8 |
| 20260504031535 | 13 | 239 | 1.6 | 4.8 | 0.00 | 0.00 | 0.00 | 41 | 1002.9 |
| 20260504031033 | 13 | 245 | 3.2 | 4.8 | 0.00 | 0.00 | 0.00 | 41 | 1003.0 |
| 20260504030533 | 13 | 259 | 1.6 | 4.8 | 0.00 | 0.00 | 0.00 | 41 | 1003.1 |
| 20260504030033 | 13 | 245 | 3.2 | 4.8 | 0.00 | 0.00 | 0.00 | 41 | 1003.2 |
| 20260504025533 | 13 | 240 | 1.6 | 4.8 | 0.00 | 0.00 | 0.00 | 40 | 1003.1 |
| 20260504025034 | 14 | 252 | 0.0 | 4.8 | 0.00 | 0.00 | 0.00 | 40 | 1003.1 |
| 20260504024535 | 14 | 253 | 1.6 | 4.8 | 0.00 | 0.00 | 0.00 | 40 | 1003.2 |
| 20260504024033 | 14 | 258 | 0.0 | 4.8 | 0.00 | 0.00 | 0.00 | 40 | 1003.2 |
| 20260504023531 | 14 | 275 | 0.0 | 4.8 | 0.00 | 0.00 | 0.00 | 39 | 1003.2 |
| 20260504023034 | 14 | 254 | 0.0 | 3.2 | 0.00 | 0.00 | 0.00 | 39 | 1003.2 |
| 20260504022533 | 15 | 249 | 1.6 | 3.2 | 0.00 | 0.00 | 0.00 | 39 | 1003.3 |
| 20260504022031 | 15 | 266 | 0.0 | 3.2 | 0.00 | 0.00 | 0.00 | 38 | 1003.2 |
| 20260504021530 | 15 | 262 | 0.0 | 1.6 | 0.00 | 0.00 | 0.00 | 38 | 1003.3 |
| 20260504021030 | 15 | 263 | 0.0 | 1.6 | 0.00 | 0.00 | 0.00 | 38 | 1003.3 |
| 20260504020529 | 15 | 261 | 0.0 | 3.2 | 0.00 | 0.00 | 0.00 | 38 | 1003.3 |
| 20260504020028 | 15 | 269 | 0.0 | 3.2 | 0.00 | 0.00 | 0.00 | 38 | 1003.3 |
| 20260504015529 | 15 | 277 | 0.0 | 3.2 | 0.00 | 0.00 | 0.00 | 37 | 1003.4 |
| 20260504015029 | 15 | 257 | 0.0 | 3.2 | 0.00 | 0.00 | 0.00 | 37 | 1003.4 |
| 20260504014537 | 15 | 252 | 1.6 | 3.2 | 0.00 | 0.00 | 0.00 | 37 | 1003.4 |
| 20260504014028 | 16 | 262 | 1.6 | 3.2 | 0.00 | 0.00 | 0.00 | 38 | 1003.5 |
| 20260504013526 | 16 | 278 | 1.6 | 3.2 | 0.00 | 0.00 | 0.00 | 40 | 1003.6 |
| 20260504013035 | 16 | 288 | 1.6 | 4.8 | 0.00 | 0.00 | 0.00 | 38 | 1003.6 |
| 20260504012526 | 16 | 280 | 1.6 | 6.4 | 0.00 | 0.00 | 0.00 | 43 | 1003.7 |
| 20260504012026 | 16 | 283 | 4.8 | 8.0 | 0.00 | 0.00 | 0.00 | 39 | 1003.6 |
| 20260504011526 | 17 | 283 | 4.8 | 11.3 | 0.00 | 0.00 | 0.00 | 38 | 1003.6 |
| 20260504011024 | 17 | 281 | 6.4 | 12.9 | 0.00 | 0.00 | 0.00 | 40 | 1003.7 |
| 20260504010524 | 17 | 290 | 9.7 | 16.1 | 0.00 | 0.00 | 0.00 | 35 | 1003.8 |
| 20260504010023 | 17 | 288 | 9.7 | 19.3 | 0.00 | 0.00 | 0.00 | 34 | 1003.8 |
| 20260504005523 | 18 | 290 | 12.9 | 19.3 | 0.00 | 0.00 | 0.00 | 32 | 1003.8 |
| 20260504005023 | 18 | 285 | 14.5 | 19.3 | 0.00 | 0.00 | 0.00 | 33 | 1003.9 |
| 20260504004527 | 18 | 271 | 12.9 | 22.5 | 0.00 | 0.00 | 0.00 | 33 | 1003.9 |
| 20260504004022 | 18 | 290 | 12.9 | 22.5 | 0.00 | 0.00 | 0.00 | 33 | 1003.9 |
| 20260504003522 | 18 | 284 | 16.1 | 22.5 | 0.00 | 0.00 | 0.00 | 31 | 1003.9 |
| 20260504003021 | 18 | 283 | 11.3 | 19.3 | 0.00 | 0.00 | 0.00 | 30 | 1004.0 |
| 20260504002523 | 18 | 287 | 12.9 | 20.9 | 0.00 | 0.00 | 0.00 | 29 | 1004.0 |
| 20260504002021 | 18 | 248 | 14.5 | 27.4 | 0.00 | 0.00 | 0.00 | 28 | 1004.1 |
| 20260504001521 | 18 | 287 | 12.9 | 25.7 | 0.00 | 0.00 | 0.00 | 30 | 1004.0 |
| 20260504001020 | 19 | 283 | 16.1 | 25.7 | 0.00 | 0.00 | 0.00 | 27 | 1004.0 |
| 20260504000519 | 19 | 328 | 11.3 | 25.7 | 0.00 | 0.00 | 0.00 | 28 | 1004.0 |
| 20260504000020 | 19 | 285 | 9.7 | 22.5 | 0.00 | 0.00 | 0.00 | 28 | 1004.1 |
| 20260503235521 | 19 | 294 | 9.7 | 22.5 | 0.00 | 0.00 | 0.00 | 30 | 1004.2 |
| 20260503235019 | 19 | 313 | 9.7 | 25.7 | 0.00 | 0.00 | 0.00 | 30 | 1004.3 |
| 20260503234521 | 19 | 281 | 16.1 | 27.4 | 0.00 | 0.00 | 0.00 | 30 | 1004.1 |
| 20260503234022 | 19 | 256 | 19.3 | 27.4 | 0.00 | 0.00 | 0.00 | 28 | 1004.2 |
| 20260503233519 | 19 | 274 | 11.3 | 22.5 | 0.00 | 0.00 | 0.00 | 28 | 1004.2 |
| 20260503233021 | 20 | 256 | 9.7 | 22.5 | 0.00 | 0.00 | 0.00 | 28 | 1004.2 |
| 20260503232519 | 20 | 266 | 11.3 | 22.5 | 0.00 | 0.00 | 0.00 | 27 | 1004.3 |
| 20260503232019 | 20 | 281 | 8.0 | 24.1 | 0.00 | 0.00 | 0.00 | 26 | 1004.5 |
| 20260503231519 | 20 | 311 | 8.0 | 24.1 | 0.00 | 0.00 | 0.00 | 26 | 1004.5 |
| 20260503231015 | 20 | 274 | 8.0 | 19.3 | 0.00 | 0.00 | 0.00 | 25 | 1004.4 |
| 20260503230518 | 20 | 351 | 8.0 | 19.3 | 0.00 | 0.00 | 0.00 | 25 | 1004.5 |
| 20260503230017 | 20 | 295 | 9.7 | 24.1 | 0.00 | 0.00 | 0.00 | 26 | 1004.3 |
| 20260503225513 | 20 | 323 | 8.0 | 24.1 | 0.00 | 0.00 | 0.00 | 26 | 1004.5 |
| 20260503225012 | 20 | 277 | 4.8 | 29.0 | 0.00 | 0.00 | 0.00 | 26 | 1004.6 |
| 20260503224511 | 20 | 267 | 12.9 | 29.0 | 0.00 | 0.00 | 0.00 | 26 | 1004.6 |
| 20260503224013 | 20 | 229 | 6.4 | 17.7 | 0.00 | 0.00 | 0.00 | 25 | 1004.8 |
| 20260503223510 | 20 | 315 | 6.4 | 16.1 | 0.00 | 0.00 | 0.00 | 25 | 1004.8 |
| 20260503223009 | 20 | 20 | 6.4 | 25.7 | 0.00 | 0.00 | 0.00 | 24 | 1004.9 |
| 20260503222510 | 20 | 330 | 8.0 | 20.9 | 0.00 | 0.00 | 0.00 | 24 | 1004.9 |
| 20260503222110 | 20 | 312 | 9.7 | 20.9 | 0.00 | 0.00 | 0.00 | 26 | 1004.8 |
| 20260503221509 | 20 | 266 | 8.0 | 24.1 | 0.00 | 0.00 | 0.00 | 27 | 1004.9 |
| 20260503221009 | 20 | 319 | 9.7 | 27.4 | 0.00 | 0.00 | 0.00 | 26 | 1005.0 |
| 20260503220509 | 20 | 321 | 11.3 | 27.4 | 0.00 | 0.00 | 0.00 | 27 | 1005.0 |
| 20260503220007 | 20 | 297 | 4.8 | 16.1 | 0.00 | 0.00 | 0.00 | 26 | 1005.0 |
| 20260503215506 | 20 | 290 | 11.3 | 17.7 | 0.00 | 0.00 | 0.00 | 25 | 1005.0 |
| 20260503215006 | 20 | 354 | 8.0 | 20.9 | 0.00 | 0.00 | 0.00 | 25 | 1005.1 |
| 20260503214505 | 20 | 324 | 8.0 | 22.5 | 0.00 | 0.00 | 0.00 | 25 | 1005.2 |
| 20260503214004 | 20 | 318 | 6.4 | 22.5 | 0.00 | 0.00 | 0.00 | 27 | 1005.1 |
| 20260503213503 | 20 | 293 | 12.9 | 22.5 | 0.00 | 0.00 | 0.00 | 27 | 1005.1 |
| 20260503213007 | 20 | 314 | 11.3 | 20.9 | 0.00 | 0.00 | 0.00 | 27 | 1005.3 |
| 20260503212503 | 20 | 317 | 6.4 | 12.9 | 0.00 | 0.00 | 0.00 | 26 | 1005.4 |
| 20260503212002 | 20 | 328 | 1.6 | 17.7 | 0.00 | 0.00 | 0.00 | 26 | 1005.4 |
| 20260503211500 | 20 | 267 | 6.4 | 17.7 | 0.00 | 0.00 | 0.00 | 25 | 1005.5 |
| 20260503211001 | 20 | 324 | 8.0 | 16.1 | 0.00 | 0.00 | 0.00 | 27 | 1005.6 |
| 20260503210600 | 20 | 328 | 8.0 | 30.6 | 0.00 | 0.00 | 0.00 | 27 | 1005.6 |
| 20260503210502 | 20 | 295 | 6.4 | 30.6 | 0.00 | 0.00 | 0.00 | 27 | 1005.6 |
| 20260503210100 | 20 | 356 | 11.3 | 30.6 | 0.00 | 0.00 | 0.00 | 27 | 1005.7 |
| 20260503205600 | 20 | 304 | 8.0 | 24.1 | 0.00 | 0.00 | 0.00 | 28 | 1005.7 |
| 20260503205059 | 20 | 340 | 6.4 | 19.3 | 0.00 | 0.00 | 0.00 | 28 | 1005.8 |
| 20260503204559 | 20 | 314 | 6.4 | 16.1 | 0.00 | 0.00 | 0.00 | 28 | 1005.8 |
| 20260503204059 | 19 | 326 | 8.0 | 22.5 | 0.00 | 0.00 | 0.00 | 27 | 1005.8 |
| 20260503203558 | 19 | 341 | 8.0 | 22.5 | 0.00 | 0.00 | 0.00 | 27 | 1006.0 |
| 20260503203114 | 20 | 296 | 8.0 | 24.1 | 0.00 | 0.00 | 0.00 | 27 | 1006.0 |
| 20260503202558 | 19 | 323 | 11.3 | 24.1 | 0.00 | 0.00 | 0.00 | 28 | 1006.1 |
| 20260503202058 | 19 | 319 | 9.7 | 19.3 | 0.00 | 0.00 | 0.00 | 28 | 1006.1 |
| 20260503201557 | 18 | 355 | 8.0 | 24.1 | 0.00 | 0.00 | 0.00 | 27 | 1006.2 |
| 20260503201058 | 19 | 349 | 8.0 | 24.1 | 0.00 | 0.00 | 0.00 | 25 | 1006.3 |
| 20260503200556 | 19 | 290 | 8.0 | 14.5 | 0.00 | 0.00 | 0.00 | 27 | 1006.2 |
| 20260503200056 | 19 | 20 | 6.4 | 14.5 | 0.00 | 0.00 | 0.00 | 25 | 1006.2 |
| 20260503195556 | 19 | 30 | 8.0 | 16.1 | 0.00 | 0.00 | 0.00 | 26 | 1006.3 |
| 20260503195054 | 19 | 55 | 4.8 | 19.3 | 0.00 | 0.00 | 0.00 | 28 | 1006.4 |
| 20260503194553 | 19 | 284 | 8.0 | 19.3 | 0.00 | 0.00 | 0.00 | 28 | 1006.4 |
| 20260503194052 | 18 | 311 | 4.8 | 17.7 | 0.00 | 0.00 | 0.00 | 30 | 1006.5 |
| 20260503193552 | 18 | 44 | 6.4 | 17.7 | 0.00 | 0.00 | 0.00 | 28 | 1006.6 |
| 20260503193054 | 18 | 4 | 6.4 | 17.7 | 0.00 | 0.00 | 0.00 | 27 | 1006.6 |
| 20260503192550 | 18 | 354 | 8.0 | 17.7 | 0.00 | 0.00 | 0.00 | 29 | 1006.7 |
| 20260503192050 | 18 | 1 | 8.0 | 25.7 | 0.00 | 0.00 | 0.00 | 28 | 1006.7 |
| 20260503191552 | 18 | 40 | 9.7 | 25.7 | 0.00 | 0.00 | 0.00 | 28 | 1006.8 |
| 20260503191048 | 18 | 328 | 8.0 | 20.9 | 0.00 | 0.00 | 0.00 | 28 | 1007.0 |
| 20260503190548 | 18 | 270 | 9.7 | 20.9 | 0.00 | 0.00 | 0.00 | 29 | 1007.1 |
| 20260503185548 | 18 | 34 | 19.3 | 27.4 | 0.00 | 0.00 | 0.00 | 30 | 1007.1 |
| 20260503185048 | 18 | 4 | 9.7 | 22.5 | 0.00 | 0.00 | 0.00 | 30 | 1007.1 |
| 20260503184545 | 18 | 347 | 11.3 | 22.5 | 0.00 | 0.00 | 0.00 | 32 | 1007.2 |
| 20260503184048 | 17 | 301 | 8.0 | 25.7 | 0.00 | 0.00 | 0.00 | 32 | 1007.3 |
| 20260503183545 | 17 | 44 | 14.5 | 25.7 | 0.00 | 0.00 | 0.00 | 33 | 1007.3 |
| 20260503183045 | 17 | 32 | 6.4 | 17.7 | 0.00 | 0.00 | 0.00 | 33 | 1007.3 |
| 20260503182544 | 17 | 18 | 8.0 | 22.5 | 0.00 | 0.00 | 0.00 | 33 | 1007.3 |
| 20260503182044 | 17 | 85 | 11.3 | 22.5 | 0.00 | 0.00 | 0.00 | 35 | 1007.3 |
| 20260503181551 | 17 | 34 | 9.7 | 20.9 | 0.00 | 0.00 | 0.00 | 34 | 1007.6 |
| 20260503181044 | 17 | 338 | 8.0 | 24.1 | 0.00 | 0.00 | 0.00 | 34 | 1007.4 |
| 20260503180543 | 17 | 4 | 6.4 | 24.1 | 0.00 | 0.00 | 0.00 | 34 | 1007.5 |
| 20260503180049 | 17 | 311 | 1.6 | 24.1 | 0.00 | 0.00 | 0.00 | 37 | 1007.4 |
| 20260503175542 | 17 | 19 | 12.9 | 24.1 | 0.00 | 0.00 | 0.00 | 34 | 1007.6 |
| 20260503175041 | 17 | 68 | 9.7 | 20.9 | 0.00 | 0.00 | 0.00 | 32 | 1007.6 |
| 20260503174542 | 17 | 34 | 9.7 | 19.3 | 0.00 | 0.00 | 0.00 | 34 | 1007.6 |
| 20260503174042 | 17 | 354 | 11.3 | 20.9 | 0.00 | 0.00 | 0.00 | 34 | 1007.8 |
| 20260503173541 | 17 | 19 | 8.0 | 20.9 | 0.00 | 0.00 | 0.00 | 34 | 1007.7 |
| 20260503173040 | 17 | 32 | 6.4 | 17.7 | 0.00 | 0.00 | 0.00 | 34 | 1007.7 |
| 20260503172539 | 17 | 71 | 8.0 | 17.7 | 0.00 | 0.00 | 0.00 | 34 | 1007.7 |
| 20260503172039 | 17 | 27 | 9.7 | 16.1 | 0.00 | 0.00 | 0.00 | 33 | 1007.7 |
| 20260503171538 | 17 | 37 | 8.0 | 16.1 | 0.00 | 0.00 | 0.00 | 35 | 1007.7 |
| 20260503171038 | 17 | 13 | 9.7 | 20.9 | 0.00 | 0.00 | 0.00 | 35 | 1007.7 |
| 20260503170538 | 17 | 22 | 12.9 | 20.9 | 0.00 | 0.00 | 0.00 | 35 | 1007.8 |
| 20260503150520 | 15 | 4 | 6.4 | 27.4 | 0.00 | 0.00 | 0.00 | 50 | 1007.5 |
| 20260503131006 | 11 | 41 | 8.0 | 20.9 | 0.00 | 0.00 | 0.00 | 59 | 1007.0 |
| 20260503130508 | 11 | 10 | 6.4 | 20.9 | 0.00 | 0.00 | 0.00 | 60 | 1006.9 |
| 20260503110556 | 8 | 317 | 3.2 | 6.4 | 0.00 | 0.00 | 0.00 | 63 | 1004.9 |
| 20260503100105 | 9 | 278 | 4.8 | 8.0 | 0.00 | 0.00 | 0.00 | 62 | 1004.8 |